• In Hungary
  • List of Countries
  • For 7 days
  • Water Temperature
  • Satellite Maps
  • Weather Map
  • News
  • Weather Widgets
  • user-avatar
    Login

    Hourly Weather Goryachinsk

    Today, 21 October, Saturday

    Time Temperature Precipitation Wind Pressure Humidity
    00:00 -4°C° 0 mm 3 mps 721 mmHg 59%
    01:00 -4°C° 0 mm 3 mps 721 mmHg 59%
    02:00 -4°C° 0 mm 3 mps 721 mmHg 59%
    03:00 -4°C° 0 mm 3 mps 721 mmHg 59%
    04:00 -4°C° 0 mm 3 mps 720 mmHg 59%
    05:00 -3°C° 0 mm 2 mps 721 mmHg 59%
    06:00 -3°C° 0 mm 2 mps 721 mmHg 58%
    07:00 -3°C° 0 mm 2 mps 721 mmHg 58%
    08:00 +1°C° 0 mm 2 mps 721 mmHg 53%
    09:00 +4°C° 0 mm 1 mps 721 mmHg 48%
    10:00 +7°C° 0 mm 1 mps 722 mmHg 43%
    11:00 +7°C° 0 mm 1 mps 721 mmHg 45%
    12:00 +7°C° 0 mm 1 mps 721 mmHg 48%
    13:00 +7°C° 0 mm 1 mps 721 mmHg 50%
    14:00 +6°C° 0 mm 1 mps 721 mmHg 57%
    15:00 +5°C° 0 mm 1 mps 721 mmHg 63%
    16:00 +4°C° 0 mm 1 mps 721 mmHg 70%
    17:00 +2°C° 0 mm 2 mps 722 mmHg 74%
    18:00 +1°C° 0 mm 2 mps 722 mmHg 78%
    19:00 -1°C° 0 mm 2 mps 722 mmHg 82%
    20:00 -1°C° 0 mm 2 mps 722 mmHg 83%
    21:00 -1°C° 0 mm 2 mps 722 mmHg 84%
    22:00 -1°C° 0 mm 2 mps 722 mmHg 85%
    23:00 -2°C° 0 mm 2 mps 722 mmHg 85%

    Tomorrow, 22 October, Sunday

    Time Temperature Precipitation Wind Pressure Humidity
    00:00 -2°C° 0 mm 2 mps 722 mmHg 85%
    01:00 -2°C° 0 mm 2 mps 722 mmHg 86%
    02:00 -2°C° 0 mm 2 mps 722 mmHg 86%
    03:00 -2°C° 0 mm 2 mps 722 mmHg 87%
    04:00 -2°C° 0 mm 2 mps 722 mmHg 88%
    05:00 -2°C° 0 mm 2 mps 722 mmHg 87%
    06:00 -1°C° 0 mm 2 mps 722 mmHg 87%
    07:00 -1°C° 0 mm 2 mps 722 mmHg 87%
    08:00 +2°C° 0 mm 2 mps 722 mmHg 80%
    09:00 +4°C° 0 mm 2 mps 722 mmHg 73%
    10:00 +7°C° 0 mm 2 mps 722 mmHg 66%
    11:00 +7°C° 0 mm 2 mps 721 mmHg 64%
    12:00 +9°C° 0 mm 1 mps 720 mmHg 62%
    13:00 +10°C° 0 mm 1 mps 720 mmHg 61%
    14:00 +9°C° 0 mm 1 mps 719 mmHg 66%
    15:00 +8°C° 0 mm 1 mps 719 mmHg 71%
    16:00 +7°C° 0 mm 1 mps 719 mmHg 76%
    17:00 +5°C° 0 mm 2 mps 719 mmHg 78%
    18:00 +4°C° 0 mm 2 mps 719 mmHg 80%
    19:00 +3°C° 0 mm 2 mps 719 mmHg 82%
    20:00 +3°C° 0 mm 2 mps 718 mmHg 83%
    21:00 +3°C° 0 mm 2 mps 718 mmHg 83%
    22:00 +3°C° 0 mm 2 mps 718 mmHg 83%
    23:00 +2°C° 0 mm 2 mps 718 mmHg 83%

    Day after tomorrow, 23 October, Monday

    Time Temperature Precipitation Wind Pressure Humidity
    00:00 +2°C° 0 mm 2 mps 717 mmHg 84%
    01:00 +2°C° 0 mm 2 mps 717 mmHg 84%
    02:00 +2°C° 0 mm 2 mps 716 mmHg 84%
    03:00 +2°C° 0 mm 2 mps 716 mmHg 84%
    04:00 +3°C° 0 mm 1 mps 716 mmHg 84%
    05:00 +3°C° 0 mm 1 mps 716 mmHg 83%
    06:00 +2°C° 0 mm 1 mps 716 mmHg 82%
    07:00 +2°C° 0 mm 1 mps 716 mmHg 81%
    08:00 +4°C° 0 mm 1 mps 716 mmHg 74%
    09:00 +7°C° 0 mm 1 mps 716 mmHg 67%
    10:00 +8°C° 0 mm 2 mps 716 mmHg 59%
    11:00 +9°C° 0 mm 2 mps 716 mmHg 58%
    12:00 +9°C° 0 mm 2 mps 715 mmHg 56%
    13:00 +10°C° 0 mm 3 mps 715 mmHg 55%
    14:00 +9°C° 0 mm 3 mps 715 mmHg 60%
    15:00 +8°C° 0 mm 3 mps 716 mmHg 65%
    16:00 +5°C° 0 mm 3 mps 716 mmHg 70%
    17:00 +4°C° 0 mm 3 mps 717 mmHg 74%
    18:00 +5°C° 0 mm 2 mps 718 mmHg 77%
    19:00 +4°C° 0 mm 2 mps 719 mmHg 80%
    20:00 +2°C° 0 mm 3 mps 719 mmHg 84%
    21:00 +2°C° 0 mm 3 mps 720 mmHg 88%
    22:00 +2°C° 0 mm 3 mps 721 mmHg 92%
    23:00 +2°C° 0 mm 3 mps 721 mmHg 89%

    24 October, Tuesday

    Time Temperature Precipitation Wind Pressure Humidity
    00:00 +1°C° 0 mm 3 mps 721 mmHg 86%
    01:00 +1°C° 0 mm 3 mps 722 mmHg 83%
    02:00 +1°C° 0 mm 3 mps 722 mmHg 83%
    03:00 +1°C° 0 mm 2 mps 722 mmHg 82%
    04:00 -1°C° 0 mm 2 mps 722 mmHg 82%
    05:00 -1°C° 0 mm 2 mps 723 mmHg 80%
    06:00 -1°C° 0 mm 2 mps 723 mmHg 79%
    07:00 -1°C° 0 mm 2 mps 723 mmHg 77%
    08:00 +1°C° 0 mm 2 mps 723 mmHg 70%
    09:00 +2°C° 0 mm 2 mps 724 mmHg 63%
    10:00 +3°C° 0 mm 2 mps 724 mmHg 56%
    11:00 +3°C° 0 mm 3 mps 723 mmHg 55%
    12:00 +3°C° 0 mm 3 mps 723 mmHg 54%
    13:00 +3°C° 0 mm 3 mps 723 mmHg 53%
    14:00 +2°C° 0 mm 3 mps 723 mmHg 58%
    15:00 +3°C° 0 mm 2 mps 723 mmHg 62%
    16:00 +2°C° 0 mm 2 mps 723 mmHg 67%
    17:00 +1°C° 0 mm 2 mps 723 mmHg 71%
    18:00 -1°C° 0 mm 2 mps 724 mmHg 75%
    19:00 -2°C° 0 mm 2 mps 724 mmHg 79%
    20:00 -2°C° 0 mm 2 mps 724 mmHg 79%
    21:00 -2°C° 0 mm 2 mps 724 mmHg 80%
    22:00 0°C° 0 mm 1 mps 724 mmHg 80%
    23:00 0°C° 0 mm 1 mps 724 mmHg 80%

    25 October, Wednesday

    Time Temperature Precipitation Wind Pressure Humidity
    00:00 0°C° 0 mm 1 mps 723 mmHg 80%
    01:00 0°C° 0 mm 1 mps 723 mmHg 80%
    02:00 0°C° 0 mm 1 mps 723 mmHg 80%
    03:00 0°C° 0 mm 1 mps 723 mmHg 79%
    04:00 -1°C° 0 mm 1 mps 723 mmHg 79%
    05:00 0°C° 0 mm 1 mps 723 mmHg 77%
    06:00 0°C° 0 mm 1 mps 723 mmHg 76%
    07:00 -2°C° 0 mm 2 mps 723 mmHg 75%
    08:00 +1°C° 0 mm 2 mps 723 mmHg 67%
    09:00 +4°C° 0 mm 2 mps 722 mmHg 59%
    10:00 +6°C° 0 mm 2 mps 722 mmHg 52%
    11:00 +7°C° 0 mm 2 mps 722 mmHg 51%
    12:00 +7°C° 0 mm 2 mps 721 mmHg 51%
    13:00 +8°C° 0 mm 2 mps 721 mmHg 51%
    14:00 +7°C° 0 mm 2 mps 720 mmHg 57%
    15:00 +5°C° 0 mm 2 mps 720 mmHg 63%
    16:00 +4°C° 0 mm 2 mps 720 mmHg 69%
    17:00 +3°C° 0 mm 2 mps 720 mmHg 72%
    18:00 +2°C° 0 mm 2 mps 720 mmHg 76%
    19:00 +1°C° 0 mm 2 mps 720 mmHg 79%
    20:00 +2°C° 0 mm 1 mps 720 mmHg 80%
    21:00 +2°C° 0 mm 1 mps 720 mmHg 81%
    22:00 +2°C° 0 mm 1 mps 720 mmHg 81%
    23:00 +2°C° 0 mm 1 mps 720 mmHg 82%

    26 October, Thursday

    Time Temperature Precipitation Wind Pressure Humidity
    00:00 +2°C° 0 mm 1 mps 720 mmHg 82%
    01:00 +2°C° 0 mm 1 mps 719 mmHg 82%
    02:00 +2°C° 0 mm 1 mps 719 mmHg 83%
    03:00 +2°C° 0 mm 1 mps 719 mmHg 83%
    04:00 +2°C° 0 mm 1 mps 719 mmHg 84%
    05:00 +2°C° 0 mm 1 mps 719 mmHg 84%
    06:00 +2°C° 0 mm 1 mps 719 mmHg 83%
    07:00 +2°C° 0 mm 1 mps 718 mmHg 83%
    08:00 +4°C° 0 mm 1 mps 718 mmHg 76%
    09:00 +6°C° 0 mm 1 mps 717 mmHg 69%
    10:00 +8°C° 0 mm 1 mps 717 mmHg 62%
    11:00 +9°C° 0 mm 1 mps 716 mmHg 60%
    12:00 +10°C° 0 mm 1 mps 716 mmHg 58%
    13:00 +10°C° 0 mm 2 mps 715 mmHg 56%
    14:00 +9°C° 0 mm 1 mps 715 mmHg 63%
    15:00 +7°C° 0 mm 1 mps 715 mmHg 70%
    16:00 +6°C° 0 mm 1 mps 715 mmHg 76%
    17:00 +5°C° 0 mm 1 mps 715 mmHg 80%
    18:00 +3°C° 0 mm 2 mps 716 mmHg 83%
    19:00 +2°C° 0 mm 2 mps 716 mmHg 86%
    20:00 +2°C° 0 mm 2 mps 716 mmHg 88%
    21:00 +2°C° 0 mm 2 mps 716 mmHg 89%
    22:00 +2°C° 0 mm 2 mps 717 mmHg 91%
    23:00 +2°C° 0 mm 2 mps 717 mmHg 91%
    Show more